This is the latest recevied weather packets stored in our database for station/object WA6OOO. If no packets are shown the sender has not sent any weather packets the latest 10 day(s).
| Time | Temp. | Humidity | Pressure | Rain* | Wind** | Luminosity | Snow |
|---|---|---|---|---|---|---|---|
| 1777935612 | 18.33° C | 64% | 1017.9 hPa | 0 mm | - | 656 W/m² | - |
| 1777935308 | 18.33° C | 66% | 1017.8 hPa | 0 mm | - | 657 W/m² | - |
| 1777935005 | 18.89° C | 64% | 1018 hPa | 0 mm | - | 632 W/m² | - |
| 1777934701 | 18.89° C | 64% | 1018.1 hPa | 0 mm | - | 580 W/m² | - |
| 1777934399 | 18.89° C | 65% | 1018.1 hPa | 0 mm | - | 626 W/m² | - |
| 1777934095 | 18.33° C | 65% | 1018.2 hPa | 0 mm | - | 722 W/m² | - |
| 1777933791 | 18.33° C | 64% | 1018 hPa | 0 mm | - | 708 W/m² | - |
| 1777933489 | 17.78° C | 66% | 1018.1 hPa | 0 mm | - | 724 W/m² | - |
| 1777933186 | 17.78° C | 66% | 1018.4 hPa | 0 mm | - | 462 W/m² | - |
| 1777932883 | 17.78° C | 65% | 1018.2 hPa | 0 mm | - | 610 W/m² | - |
| 1777932580 | 17.78° C | 67% | 1018.4 hPa | 0 mm | - | 383 W/m² | - |
| 1777932276 | 17.78° C | 64% | 1018.3 hPa | 0 mm | - | 607 W/m² | - |
| 1777931974 | 17.78° C | 66% | 1018.2 hPa | 0 mm | - | 323 W/m² | - |
| 1777931670 | 18.33° C | 64% | 1018.4 hPa | 0 mm | - | 378 W/m² | - |
| 1777931367 | 18.89° C | 61% | 1018.4 hPa | 0 mm | - | 801 W/m² | - |
| 1777931063 | 17.78° C | 63% | 1018.5 hPa | 0 mm | - | 609 W/m² | - |
| 1777930760 | 18.33° C | 62% | 1018.7 hPa | 0 mm | - | 827 W/m² | - |
| 1777930456 | 18.89° C | 62% | 1018.6 hPa | 0 mm | - | 343 W/m² | - |
| 1777930154 | 18.33° C | 61% | 1018.6 hPa | 0 mm | - | 565 W/m² | - |
| 1777929849 | 18.89° C | 62% | 1018.7 hPa | 0 mm | - | 566 W/m² | - |
| 1777929548 | 18.89° C | 62% | 1018.7 hPa | 0 mm | - | 787 W/m² | - |
| 1777929243 | 18.33° C | 62% | 1018.5 hPa | 0 mm | - | 786 W/m² | - |
| 1777928940 | 18.33° C | 60% | 1018.7 hPa | 0 mm | - | 743 W/m² | - |
| 1777928637 | 18.89° C | 62% | 1018.7 hPa | 0 mm | - | 710 W/m² | - |
| 1777928334 | 18.33° C | 62% | 1018.6 hPa | 0 mm | - | 790 W/m² | - |
* Rain latest hour (hover to see other rain measurements)
** Current wind speed in m/s (hover to see current wind gust speed)